This demonstration page uses our WeatherBlox Daily Observations layout. Learn more.

Left ArrowRight Arrow

Hourly Observations for April 1, 2019

Temp ( °F °C ) Dew Point ( °F °C ) Humidity (%) Winds ( mph kmh ) Pressure ( in mb ) Visibility ( mi km ) Precip ( " mm )
12:53 am 00:53 Clear 42 5.6 18 -7.8 38 38 ENE 9 15 30.18 1022 10 16 0.00 0.00
1:53 am 01:53 Mostly Cloudy 42 5.6 17 -8.3 36 36 ENE 9 15 30.19 1022 10 16 0.00 0.00
2:53 am 02:53 Cloudy 43 6.1 18 -7.8 37 37 ENE 10 17 30.19 1022 10 16 0.00 0.00
3:53 am 03:53 Mostly Cloudy 43 6.1 19 -7.2 38 38 ENE 6 9 30.19 1023 10 16 0.00 0.00
4:53 am 04:53 Mostly Cloudy 43 6.1 20 -6.7 40 40 ESE 12 19 30.15 1021 10 16 0.00 0.00
5:53 am 05:53 Mostly Clear 40 4.4 20 -6.7 45 45 NE 6 9 30.18 1022 10 16 0.00 0.00
6:53 am 06:53 Clear 34 1.1 20 -6.7 56 56 NNE 7 11 30.21 1023 10 16 0.00 0.00
7:53 am 07:53 Sunny 35 1.7 20 -6.7 54 54 NE 3 6 30.22 1024 10 16 0.00 0.00
8:53 am 08:53 Sunny 41 5 21 -6.1 45 45 E 7 11 30.24 1024 10 16 0.00 0.00
9:53 am 09:53 Sunny 47 8.3 22 -5.6 37 37 SE 9 15 30.23 1024 10 16 0.00 0.00
10:53 am 10:53 Sunny 49 9.4 22 -5.6 35 35 S 8 13 30.22 1024 10 16 0.00 0.00
11:53 am 11:53 Sunny 51 10.6 22 -5.6 32 32 S 8 13 30.22 1023 10 16 0.00 0.00
12:53 pm 12:53 Sunny 54 12.2 22 -5.6 29 29 S 7 11 30.18 1022 10 16 0.00 0.00
1:53 pm 13:53 Sunny 58 14.4 22 -5.6 25 25 WSW 10 17 30.14 1021 10 16 0.00 0.00
2:53 pm 14:53 Sunny 60 15.6 22 -5.6 23 23 SE 3 6 30.09 1019 10 16 0.00 0.00
3:53 pm 15:53 Sunny 61 16.1 22 -5.6 22 22 VRB 3 6 30.05 1018 10 16 0.00 0.00
4:53 pm 16:53 Sunny 64 17.8 22 -5.6 20 20 S 7 11 30.02 1017 10 16 0.00 0.00
5:53 pm 17:53 Sunny 64 17.8 21 -6.1 19 19 WSW 6 9 30.02 1017 10 16 0.00 0.00
6:53 pm 18:53 Sunny 63 17.2 21 -6.1 20 20 SSW 5 7 30.02 1017 10 16 0.00 0.00
7:53 pm 19:53 Sunny 62 16.7 21 -6.1 21 21 SE 6 9 30.02 1017 10 16 0.00 0.00
8:53 pm 20:53 Clear 56 13.3 22 -5.6 27 27 E 5 7 30.02 1017 10 16 0.00 0.00
9:53 pm 21:53 Clear 52 11.1 23 -5 32 32 SE 9 15 30.04 1017 10 16 0.00 0.00
10:53 pm 22:53 Clear 52 11.1 22 -5.6 31 31 ESE 9 15 30.05 1018 10 16 0.00 0.00
11:53 pm 23:53 Clear 52 11.1 24 -4.4 34 34 ESE 12 19 30.03 1017 10 16 0.00 0.00

Powered by AerisWeather